Flag for Saudi Arabia Weather past 2 weeks in Qatif, Saudi Arabia

Now
77 °F

Scattered clouds.


Feels Like: 77 °F
Forecast: 62 / 76 °F
Wind: 17 mph from North

Location: King Fahd International Airport

Current Time: Mar 5, 2015 at 3:12:34 PM

Latest Report: Mar 5, 2015 at 3:00 PM


Visibility: N/A

Pressure: 29.98 "Hg

Humidity: 24%

Dew point: 37 °F

Location of QatifLocation

Historic Weather in Qatif — Graph

°F

Qatif temperature yesterday

Maximum temperature yesterday: 81 °F (at 2:00 PM)
Minimum temperature yesterday: 55 °F (at 6:00 AM)
Average temperature yesterday: 67 °F

Past Weeks' High & Low Weather Summary

 TemperatureHumidityPressure
High84 °F (Feb 20, 1:00 PM)88% (Feb 20, 7:00 AM)30.18 "Hg (Feb 20, 7:00 AM)
Low45 °F (Feb 24, 6:00 AM)10% (Mar 1, 3:00 PM)29.53 "Hg (Feb 20, 2:00 PM)
Average64 °F47%29.95 "Hg
* Reported Feb 18 2:00 PM — Mar 5 2:00 PM, Qatif, Weather by CustomWeather, © 2015

Note: Actual official high and low records may vary slightly from our data, if they occured in-between our weather recording intervals... More about our weather records

Advertising

Qatif weather history for previous 24 hours

 ConditionsComfort  
Time TempWeatherWind HumidityBarometerVisibility
2:00 PM
Thu, Mar 5
77 °FScattered clouds.16 mph24%29.98 "HgN/A
1:00 PM79 °FScattered clouds.15 mph21%29.98 "HgN/A
12:00 PM77 °FScattered clouds.12 mph22%30.01 "HgN/A
11:00 AM75 °FSunny.9 mph25%30.04 "Hg10 mi
10:00 AM72 °FSunny.12 mph27%30.04 "Hg10 mi
9:00 AM68 °FSunny.12 mph33%30.04 "Hg10 mi
8:00 AM61 °FSunny.7 mph55%30.04 "Hg10 mi
7:00 AM54 °FSunny.12 mph72%29.98 "Hg10 mi
6:00 AM54 °FClear.6 mph72%29.98 "Hg10 mi
5:00 AM54 °FClear.7 mph77%29.95 "Hg10 mi
4:00 AM55 °FClear.7 mph77%29.95 "Hg10 mi
3:00 AM55 °FClear.3 mph77%29.92 "Hg10 mi
2:00 AM57 °FClear.5 mph77%29.92 "Hg10 mi
12:00 AM59 °FClear.3 mph68%29.95 "Hg10 mi
11:00 PM
Wed, Mar 4
63 °FClear.No wind59%29.95 "Hg10 mi
10:00 PM63 °FClear.5 mph59%29.95 "Hg10 mi
9:00 PM64 °FClear.6 mph60%29.95 "Hg10 mi
8:00 PM66 °FClear.6 mph46%29.95 "Hg10 mi
7:00 PM70 °FClear.8 mph33%29.92 "Hg10 mi
6:00 PM73 °FClear.13 mph23%29.92 "Hg10 mi
5:00 PM77 °FSunny.12 mph19%29.92 "Hg10 mi
4:00 PM79 °FSunny.13 mph20%29.89 "Hg10 mi
3:00 PM79 °FSunny.13 mph21%29.89 "Hg10 mi
Weather by CustomWeather, © 2015

See weather overviewHow to use our weather pages